CW5709 Weather Reports


Display with metric or nautical units.
time (UTC)temp
F
wind
direction
speed
MPH
gust
MPH
rain 1hr
in
rain 24hr
in
rain mn
in
humidity
%
barometer
mb
20260905173030 58 0.0 0.0 0.00 0.11 0.02 96 1017.6
20260905171535 58 0.0 0.0 0.00 0.11 0.02 96 1017.7
20260905170013 58 0.0 0.0 0.00 0.11 0.02 96 1017.8
20260905164523 58 0.0 0.0 0.00 0.11 0.02 96 1017.7
20260905163028 58 0.0 0.0 0.00 0.11 0.02 96 1017.5
20260905161530 57 0.0 0.0 0.00 0.11 0.02 96 1017.7
20260905160032 57 0.0 0.0 0.00 0.11 0.02 96 1017.6
20260905154519 56 0.0 0.0 0.00 0.11 0.02 96 1017.6
20260905153027 56 0.0 0.0 0.00 0.11 0.02 96 1017.7
20260905151532 56 0.0 0.0 0.00 0.11 0.02 96 1017.7
20260905150036 56 0.0 0.0 0.00 0.11 0.02 96 1017.7
20260905144535 55 0.0 0.0 0.00 0.11 0.02 96 1017.6
20260905143025 55 0.0 0.0 0.00 0.11 0.02 96 1017.6
20260905141528 55 0.0 0.0 0.00 0.11 0.02 95 1017.5
20260905140035 55 0.0 0.0 0.00 0.11 0.02 95 1017.4
20260905134542 55 0.0 0.0 0.00 0.11 0.02 95 1017.4
20260905133033 55 0.0 0.0 0.01 0.11 0.02 95 1017.3
20260905131526 55 0.0 0.0 0.01 0.11 0.02 95 1017.1
20260905130003 55 0.0 0.0 0.01 0.11 0.02 95 1017.0
20260905124511 55 0.0 0.0 0.01 0.11 0.02 95 1017.0
20260905123016 55 0.0 0.0 0.01 0.10 0.01 95 1017.0
20260905121521 55 0.0 0.0 0.01 0.10 0.01 95 1016.9
20260905120028 55 0.0 0.0 0.01 0.10 0.01 95 1017.0
20260905114507 55 0.0 0.0 0.01 0.10 0.01 95 1017.0
20260905113013 56 0.0 0.0 0.00 0.09 0.00 95 1017.0
20260905111520 56 0.0 0.0 0.00 0.09 0.00 95 1017.0
20260905110026 56 0.0 0.0 0.00 0.09 0.00 95 1017.0
20260905104527 56 0.0 0.0 0.00 0.09 0.00 95 1017.1
20260905103010 56 0.0 0.0 0.00 0.09 0.00 95 1017.0
20260905101518 56 0.0 0.0 0.00 0.09 0.00 94 1017.1
20260905100021 56 0.0 0.0 0.00 0.09 0.00 94 1017.0
20260905094529 56 0.0 0.0 0.00 0.09 0.00 94 1016.9
20260905093042 56 0.0 0.0 0.00 0.09 0.00 94 1016.8
20260905091514 56 0.0 0.0 0.00 0.09 0.00 94 1016.7
20260905090026 56 0.0 0.0 0.00 0.10 0.00 94 1016.7
20260905084526 56 0.0 0.0 0.00 0.10 0.00 94 1016.7
20260905083029 56 0.0 0.0 0.00 0.11 0.00 94 1016.6
20260905081530 56 0.0 0.0 0.00 0.11 0.00 94 1016.6
20260905080019 56 0.0 0.0 0.00 0.12 0.00 94 1016.5
20260905074523 56 0.0 0.0 0.00 0.13 0.00 94 1016.4
20260905073030 56 0.0 0.0 0.00 0.13 0.00 94 1016.4
20260905071531 56 0.0 0.0 0.00 0.14 0.00 94 1016.4
20260905070036 56 0.0 0.0 0.00 0.16 0.00 94 1016.4
20260905064520 56 0.0 0.0 0.00 0.18 0.16 94 1016.4
20260905063024 56 0.0 0.0 0.00 0.20 0.16 94 1016.2
20260905061534 57 0.0 0.0 0.00 0.21 0.16 94 1016.2
20260905060035 57 0.0 0.0 0.00 0.22 0.16 94 1016.1
20260905054535 57 0.0 0.0 0.00 0.23 0.16 93 1016.1
20260905053024 57 0.0 0.0 0.00 0.24 0.16 93 1016.1
20260905051528 57 0.0 0.0 0.00 0.25 0.16 93 1016.1
20260905050030 57 0.0 0.0 0.01 0.25 0.16 93 1016.0
20260905044537 57 0.0 0.0 0.01 0.25 0.16 92 1015.9
20260905043034 57 0.0 0.0 0.01 0.25 0.16 92 1015.7
20260905041525 57 0.0 0.0 0.01 0.25 0.16 92 1015.6
20260905040033 58 0.0 0.0 0.01 0.24 0.15 91 1015.7
20260905034513 58 0.0 0.0 0.07 0.24 0.15 91 1015.6
20260905033005 58 0.0 0.0 0.07 0.26 0.15 91 1015.5
20260905031505 58 0.0 0.0 0.07 0.29 0.15 90 1015.3
20260905030007 59 0.0 0.0 0.06 0.28 0.14 87 1015.1
20260905024508 59 0.0 0.0 0.00 0.22 0.08 84 1014.9
20260905023006 59 0.0 0.0 0.00 0.22 0.08 85 1014.9
20260905021507 60 0.0 0.0 0.00 0.22 0.08 84 1014.9
20260905020007 60 0.0 0.0 0.00 0.22 0.08 84 1014.7
20260905014504 60 0.0 0.0 0.00 0.22 0.08 84 1014.5
20260905013004 61 0.0 0.0 0.00 0.22 0.08 82 1014.5
20260905011507 62 0.0 0.0 0.00 0.24 0.08 81 1014.3
20260905010008 62 0.0 0.0 0.00 0.26 0.08 81 1014.2
20260905004513 62 0.0 0.0 0.00 0.26 0.08 81 1014.0
20260905003010 61 0.0 0.0 0.00 0.27 0.08 82 1013.9
20260905001510 61 0.0 0.0 0.00 0.27 0.08 80 1013.8
20260905000011 61 0.0 0.0 0.00 0.27 0.08 80 1013.8
20260904234517 61 0.0 0.0 0.00 0.28 0.08 79 1013.6
20260904233009 62 0.0 0.0 0.00 0.29 0.08 78 1013.7
20260904231509 62 0.0 0.0 0.00 0.29 0.08 79 1013.6
20260904230012 61 0.0 0.0 0.00 0.29 0.08 80 1013.6
20260904224512 61 0.0 0.0 0.00 0.30 0.08 79 1013.4
20260904223012 61 0.0 0.0 0.00 0.30 0.08 80 1013.5
20260904221511 61 0.0 0.0 0.00 0.30 0.08 79 1013.5
20260904220012 61 0.0 0.0 0.00 0.32 0.08 78 1013.5
20260904214511 62 0.0 0.0 0.00 0.34 0.08 78 1013.6
20260904213015 61 0.0 0.0 0.00 0.35 0.08 81 1013.4
20260904211514 61 0.0 0.0 0.00 0.37 0.08 84 1013.3
20260904210016 60 0.0 0.0 0.00 0.39 0.08 86 1013.2
20260904204513 59 0.0 0.0 0.01 0.43 0.08 91 1013.2
20260904203021 58 0.0 0.0 0.01 0.47 0.08 92 1013.2
20260904201517 58 0.0 0.0 0.01 0.47 0.08 92 1013.3
20260904200018 57 0.0 0.0 0.01 0.47 0.08 92 1013.5
20260904194519 57 0.0 0.0 0.00 0.46 0.07 91 1013.6
20260904193023 58 0.0 0.0 0.00 0.46 0.07 90 1013.4
20260904191519 57 0.0 0.0 0.00 0.46 0.07 91 1013.4
20260904190021 57 0.0 0.0 0.00 0.46 0.07 91 1013.3
20260904184524 57 0.0 0.0 0.00 0.46 0.07 93 1013.1
20260904183013 57 0.0 0.0 0.00 0.46 0.07 95 1013.1
20260904181540 57 0.0 0.0 0.00 0.46 0.07 96 1013.1
20260904180008 56 0.0 0.0 0.00 0.46 0.07 97 1013.0
20260904174507 56 0.0 0.0 0.00 0.47 0.07 97 1013.0